GW4572 Weather Reports


Display with metric or nautical units.
time (UTC)temp
F
wind
direction
speed
MPH
gust
MPH
rain 1hr
in
rain 24hr
in
rain mn
in
humidity
%
barometer
mb
20260508010006 47 301 0.0 2.0 0.00 0.01 0.01 56 1014.7
20260508005502 47 301 0.0 2.0 0.00 0.01 0.01 56 1014.7
20260508004959 47 301 0.0 2.0 0.00 0.01 0.01 56 1014.7
20260508004454 47 279 1.0 2.0 0.00 0.01 0.01 55 1014.7
20260508003951 47 45 1.0 3.0 0.00 0.01 0.01 55 1014.6
20260508003448 47 257 1.0 2.0 0.00 0.01 0.01 55 1014.6
20260507231704 52 278 2.0 4.0 0.00 0.01 0.01 46 1013.8
20260507231201 52 278 2.0 4.0 0.00 0.01 0.01 46 1013.8
20260507230657 52 278 2.0 4.0 0.00 0.01 0.01 46 1013.8
20260507220809 55 284 4.0 6.0 0.00 0.01 0.01 46 1013.6
20260507220308 55 284 4.0 6.0 0.00 0.01 0.01 46 1013.6
20260507215804 55 284 4.0 6.0 0.00 0.01 0.01 46 1013.6
20260507215301 55 265 3.0 6.0 0.00 0.01 0.01 45 1013.6
20260507214758 55 297 2.0 4.0 0.00 0.01 0.01 47 1013.4
20260507214255 55 337 1.0 4.0 0.00 0.01 0.01 48 1013.4
20260507213750 55 243 3.0 7.0 0.00 0.01 0.01 44 1013.4
20260507213248 55 289 2.0 4.0 0.00 0.01 0.01 46 1013.6
20260507212744 56 291 6.0 8.0 0.00 0.01 0.01 45 1013.4
20260507212240 55 287 1.0 6.0 0.00 0.01 0.01 47 1013.3
20260507211737 56 280 5.0 8.0 0.00 0.01 0.01 47 1013.3
20260507211234 57 265 4.0 4.0 0.00 0.01 0.01 45 1013.0
20260507210731 57 279 2.0 4.0 0.00 0.01 0.01 42 1013.0
20260507210227 56 291 0.0 4.0 0.00 0.01 0.01 48 1013.1
20260507205724 57 320 2.0 8.0 0.00 0.01 0.01 46 1013.2
20260507205221 57 246 6.0 7.0 0.00 0.01 0.01 43 1012.9
20260507204717 57 265 2.0 7.0 0.00 0.01 0.01 47 1013.0
20260507204215 58 300 2.0 6.0 0.00 0.01 0.01 52 1012.9
20260507203713 57 276 3.0 6.0 0.00 0.01 0.01 45 1013.0
20260507203210 57 294 2.0 6.0 0.00 0.01 0.01 49 1013.4
20260507202705 54 258 3.0 6.0 0.00 0.01 0.01 50 1013.0
20260507202202 55 315 3.0 4.0 0.00 0.01 0.01 50 1013.1
20260507201656 54 272 3.0 7.0 0.00 0.01 0.01 48 1013.4
20260507163406 54 243 5.0 8.0 0.00 0.01 0.01 56 1014.8
20260507162902 54 243 5.0 8.0 0.00 0.01 0.01 56 1014.8
20260507162357 53 241 2.0 10.0 0.00 0.01 0.01 58 1014.9
20260507161855 53 259 6.0 11.0 0.00 0.01 0.01 58 1014.8
20260507161351 54 269 6.0 9.0 0.00 0.01 0.01 59 1014.9
20260507160848 53 256 8.0 9.0 0.00 0.01 0.01 58 1014.7
20260507160343 53 285 3.0 6.0 0.00 0.01 0.01 60 1014.8
20260507155840 53 260 2.0 4.0 0.00 0.01 0.01 60 1014.9
20260507155336 53 280 2.0 6.0 0.00 0.01 0.01 62 1015.1
20260507154833 53 273 4.0 7.0 0.00 0.01 0.01 60 1015.1
20260507154330 53 290 5.0 8.0 0.00 0.01 0.01 63 1015.2
20260507153827 53 269 3.0 4.0 0.00 0.01 0.01 63 1015.1
20260507153324 53 68 1.0 4.0 0.00 0.01 0.01 64 1015.1
20260507152820 52 296 1.0 2.0 0.00 0.01 0.01 64 1015.2
20260507152316 54 272 2.0 4.0 0.00 0.01 0.01 60 1015.3
20260507151812 53 293 3.0 4.0 0.00 0.01 0.01 63 1015.5
20260507151309 54 251 5.0 6.0 0.00 0.01 0.01 59 1015.3
20260507150806 52 249 4.0 6.0 0.00 0.01 0.01 61 1015.3
20260507150302 51 299 2.0 4.0 0.00 0.01 0.01 63 1015.3
20260507145759 52 250 1.0 4.0 0.00 0.01 0.01 69 1015.4
20260507145255 50 285 1.0 7.0 0.00 0.01 0.01 69 1015.6
20260507144752 50 296 1.0 4.0 0.00 0.01 0.01 68 1015.5
20260507144250 51 283 2.0 4.0 0.00 0.01 0.01 66 1015.6
20260507143746 50 296 5.0 6.0 0.00 0.01 0.01 70 1015.6
20260507143244 49 259 5.0 7.0 0.00 0.01 0.01 68 1015.8
20260507142739 49 281 2.0 3.0 0.00 0.01 0.01 69 1015.8
20260507142236 49 282 5.0 7.0 0.00 0.01 0.01 66 1016.0
20260507141732 48 274 4.0 7.0 0.00 0.01 0.01 71 1016.1
20260507141230 48 279 4.0 4.0 0.00 0.01 0.01 73 1015.9
20260507140725 47 264 2.0 4.0 0.00 0.01 0.01 70 1016.2
20260507140224 47 279 2.0 4.0 0.00 0.01 0.01 72 1016.4
20260507135720 49 266 4.0 4.0 0.00 0.01 0.01 68 1016.1
20260507135218 48 327 1.0 6.0 0.00 0.01 0.01 69 1016.2
20260507134714 48 287 3.0 4.0 0.00 0.01 0.01 69 1016.4
20260507134210 50 291 2.0 3.0 0.00 0.01 0.01 68 1016.2
20260507133706 49 293 0.0 3.0 0.00 0.01 0.01 74 1016.2
20260507133203 50 261 2.0 3.0 0.00 0.01 0.01 68 1016.2
20260507132701 49 298 2.0 3.0 0.00 0.01 0.01 75 1016.2
20260507132157 47 277 3.0 4.0 0.00 0.01 0.01 75 1016.4
20260507131654 47 269 2.0 2.0 0.00 0.01 0.01 76 1016.5
20260507131151 49 309 1.0 2.0 0.00 0.01 0.01 73 1016.4
20260507130647 46 74 1.0 2.0 0.00 0.01 0.01 83 1016.2
20260507130145 47 237 3.0 4.0 0.00 0.01 0.01 76 1016.5
20260507125644 48 7 0.0 1.0 0.00 0.01 0.01 79 1016.4
20260507125142 46 335 1.0 2.0 0.00 0.01 0.01 81 1016.5
20260507124637 46 266 0.0 1.0 0.00 0.01 0.01 81 1016.6
20260507124135 44 265 0.0 1.0 0.00 0.01 0.01 84 1016.6
20260507123633 44 265 0.0 0.0 0.00 0.01 0.01 81 1016.7
20260507123130 43 265 0.0 0.0 0.00 0.01 0.01 83 1016.7
20260507122625 43 265 0.0 0.0 0.00 0.01 0.01 85 1016.6
20260507122121 42 265 0.0 1.0 0.00 0.01 0.01 85 1016.6
20260507121617 42 265 0.0 1.0 0.00 0.01 0.01 85 1016.6
20260507121113 42 265 0.0 1.0 0.00 0.01 0.01 86 1016.6
20260507120609 41 265 0.0 1.0 0.00 0.01 0.01 87 1016.1
20260507120107 42 265 0.0 0.0 0.00 0.01 0.01 91 1016.4
20260507115603 42 265 0.0 0.0 0.00 0.01 0.01 92 1016.4
20260507115059 41 265 0.0 0.0 0.00 0.01 0.01 93 1016.5
20260507114555 42 265 0.0 0.0 0.00 0.01 0.01 94 1016.1
20260507114052 42 265 0.0 0.0 0.00 0.01 0.01 94 1016.0
20260507113549 41 265 0.0 0.0 0.00 0.01 0.01 94 1016.0
20260507113046 42 265 1.0 1.0 0.00 0.01 0.01 95 1016.0
20260507112544 41 265 0.0 0.0 0.00 0.01 0.01 95 1015.9
20260507112041 42 265 0.0 0.0 0.00 0.01 0.01 95 1016.0
20260507111538 41 265 0.0 0.0 0.00 0.01 0.01 95 1016.0
20260507111034 41 265 0.0 1.0 0.00 0.01 0.01 95 1016.0
20260507065514 43 267 0.0 0.0 0.00 0.00 0.00 96 1015.1
20260507065011 43 267 0.0 0.0 0.00 0.00 0.00 96 1015.1
20260507064509 43 267 0.0 0.0 0.00 0.00 0.00 96 1015.1
20260507064008 43 267 0.0 0.0 0.00 0.00 0.00 96 1014.9
20260507063504 43 267 0.0 0.0 0.00 0.00 0.00 96 1015.2
20260507063001 43 267 0.0 0.0 0.00 0.00 0.00 96 1015.3
20260507062458 43 267 1.0 1.0 0.00 0.00 0.00 96 1015.5
20260507061955 43 267 0.0 2.0 0.00 0.00 0.00 95 1015.3
20260507061453 43 267 2.0 2.0 0.00 0.00 0.00 95 1015.5
20260507060951 43 267 1.0 1.0 0.00 0.00 0.00 95 1015.4
20260507060448 43 267 1.0 2.0 0.00 0.00 0.00 95 1015.7
20260507055944 43 267 1.0 2.0 0.00 0.00 0.00 95 1015.8
20260507055440 43 266 0.0 2.0 0.00 0.00 0.00 95 1015.6
20260507054937 43 265 1.0 1.0 0.00 0.00 0.00 95 1015.8
20260507054433 43 265 1.0 2.0 0.00 0.00 0.00 95 1015.8
20260507053930 43 270 1.0 1.0 0.00 0.00 0.00 95 1015.8
20260507053428 43 270 1.0 2.0 0.00 0.00 0.00 95 1015.9
20260507052926 43 278 1.0 2.0 0.00 0.00 0.00 95 1015.9
20260507052423 43 278 1.0 1.0 0.00 0.00 0.00 96 1015.8
20260507051920 43 275 4.0 4.0 0.00 0.00 0.00 96 1015.9
20260507051418 43 288 0.0 0.0 0.00 0.00 0.00 96 1015.9
20260507050915 43 288 2.0 2.0 0.00 0.00 0.00 96 1015.9
20260507050411 43 289 1.0 1.0 0.00 0.00 0.00 96 1016.1
20260507045908 44 290 0.0 2.0 0.00 0.00 0.00 96 1016.0
20260507045404 44 289 1.0 2.0 0.00 0.00 0.00 96 1015.8
20260507044857 44 311 1.0 1.0 0.00 0.00 0.00 96 1015.7
20260507044353 44 292 1.0 3.0 0.00 0.00 0.00 96 1015.8
20260507043849 44 292 1.0 2.0 0.00 0.00 0.00 96 1015.7
20260507043346 44 305 0.0 0.0 0.00 0.00 0.00 96 1015.6
20260507042842 44 305 0.0 0.0 0.00 0.00 0.00 96 1015.4
20260507042338 44 305 0.0 0.0 0.00 0.00 0.00 96 1015.6
20260507041835 44 305 0.0 1.0 0.00 0.00 0.00 96 1015.4
20260507041331 45 305 0.0 0.0 0.00 0.00 0.00 96 1015.5
20260507040828 45 305 0.0 2.0 0.00 0.00 0.00 97 1015.9
20260507040324 45 277 0.0 0.0 0.00 0.27 0.27 97 1015.8
20260507035820 45 277 0.0 2.0 0.07 0.27 0.27 97 1015.6
20260507035316 45 277 0.0 0.0 0.07 0.27 0.27 97 1015.7
20260507034814 45 277 1.0 2.0 0.00 0.26 0.26 97 1015.8
20260507034310 45 277 0.0 2.0 0.00 0.26 0.26 97 1015.6
20260507033809 45 282 0.0 0.0 0.00 0.26 0.26 97 1015.7
20260507033306 45 282 2.0 3.0 0.00 0.26 0.26 97 1015.7
20260507032803 45 286 0.0 1.0 0.00 0.26 0.26 97 1015.5
20260507032259 45 286 0.0 2.0 0.00 0.26 0.26 97 1015.8
20260507031755 46 302 0.0 4.0 0.00 0.26 0.26 97 1016.0
20260507031252 46 279 0.0 0.0 0.00 0.26 0.26 97 1016.2
20260507030749 46 279 0.0 0.0 0.00 0.26 0.26 97 1015.5
20260507030246 46 279 0.0 0.0 0.00 0.26 0.26 97 1015.1
20260507025743 46 279 0.0 0.0 0.00 0.26 0.26 97 1015.2
20260507025240 46 279 0.0 0.0 0.00 0.26 0.26 97 1015.5
20260507024739 46 279 0.0 1.0 0.07 0.26 0.26 97 1015.8
20260507024236 47 279 1.0 2.0 0.07 0.26 0.26 97 1015.7